Flag for Germany Weather past 2 weeks in Eberswalde, Brandenburg, Germany

Now
66 °F

Broken clouds.


Feels Like: 66 °F
Forecast: 52 / 66 °F
Wind: 5 mph from Northwest

Location: Berlin-Tegel

Current Time: Sep 30, 2014 at 6:18:36 PM

Latest Report: Sep 30, 2014 at 5:50 PM


Visibility: N/A

Pressure: 30.24 "Hg

Humidity: 78%

Dew point: 59 °F

Location of EberswaldeLocation

Historic Weather in Eberswalde — Graph

°F

Eberswalde temperature yesterday

Maximum temperature yesterday: 75 °F (at 3:20 PM)
Minimum temperature yesterday: 52 °F (at 1:50 AM)
Average temperature yesterday: 63 °F

Past Weeks' High & Low Weather Summary

 TemperatureHumidityPressure
High77 °F (Sep 15, 5:20 PM)100% (Sep 21, 3:20 AM)30.36 "Hg (Sep 21, 3:20 AM)
Low43 °F (Sep 28, 5:50 AM)38% (Sep 18, 6:20 PM)29.77 "Hg (Sep 22, 10:50 AM)
Average60 °F75%30.05 "Hg
* Reported Sep 15 5:20 PM — Sep 30 5:20 PM, Eberswalde, Weather by CustomWeather, © 2014

Note: Actual official high and low records may vary slightly from our data, if they occured in-between our weather recording intervals... More about our weather records

Advertising

Eberswalde weather history for previous 24 hours

 ConditionsComfort  
Time TempWeatherWind HumidityBarometerVisibility
5:20 PM
Sep 30
66 °FBroken clouds.6 mph78%30.24 "HgN/A
4:50 PM66 °FBroken clouds.5 mph78%30.24 "HgN/A
4:20 PM66 °FBroken clouds.8 mph78%30.24 "HgN/A
3:50 PM66 °FLight rain. Broken clouds.9 mph78%30.21 "HgN/A
3:20 PM64 °FBroken clouds.8 mph83%30.21 "Hg6 mi
2:50 PM64 °FBroken clouds.7 mph88%30.21 "Hg5 mi
2:20 PM63 °FDrizzle. Broken clouds.8 mph94%30.24 "Hg5 mi
1:50 PM64 °FBroken clouds.7 mph88%30.21 "Hg5 mi
1:20 PM63 °FBroken clouds.9 mph94%30.21 "Hg5 mi
12:50 PM63 °FDrizzle. Partly sunny.12 mph88%30.21 "Hg5 mi
12:20 PM63 °FPartly sunny.10 mph94%30.21 "Hg6 mi
11:50 AM64 °FPartly sunny.10 mph83%30.21 "Hg5 mi
11:20 AM64 °FPartly sunny.9 mph88%30.21 "Hg4 mi
10:50 AM63 °FLight rain. Partly sunny.6 mph94%30.21 "Hg4 mi
10:20 AM63 °FDrizzle. Broken clouds.7 mph94%30.21 "Hg4 mi
9:50 AM63 °FDrizzle. Broken clouds.3 mph88%30.21 "Hg4 mi
9:20 AM63 °FDrizzle. Broken clouds.6 mph88%30.21 "Hg3 mi
8:50 AM63 °FPartly sunny.1 mph88%30.21 "Hg4 mi
8:20 AM61 °FBroken clouds.2 mph94%30.21 "Hg4 mi
7:50 AM61 °FFog.3 mph94%30.18 "Hg3 mi
7:20 AM61 °FLight rain. Mostly cloudy.2 mph94%30.18 "Hg3 mi
6:50 AM61 °FLight rain. Partly cloudy.2 mph94%30.18 "Hg4 mi
6:20 AM61 °FLight rain. Partly cloudy.6 mph94%30.21 "Hg4 mi
5:50 AM61 °FLight rain. Partly cloudy.6 mph94%30.18 "HgN/A
5:20 AM61 °FLight rain. Clear.5 mph94%30.18 "HgN/A
4:50 AM61 °FLight rain. Clear.1 mph94%30.18 "HgN/A
4:20 AM61 °FLight rain. Clear.2 mph94%30.18 "HgN/A
3:50 AM61 °FLight rain. Clear.1 mph88%30.18 "HgN/A
3:20 AM61 °FLight rain. Clear.No wind88%30.18 "HgN/A
2:50 AM61 °FFog.1 mph88%30.18 "HgN/A
2:20 AM61 °FClear.1 mph88%30.18 "Hg10 mi
1:50 AM61 °FClear.1 mph88%30.18 "Hg10 mi
1:20 AM63 °FPassing clouds.2 mph83%30.21 "HgN/A
12:50 AM63 °FPassing clouds.2 mph88%30.18 "HgN/A
12:20 AM63 °FPartly cloudy.3 mph83%30.18 "HgN/A
11:50 PM
Sep 29
64 °FClear.2 mph83%30.18 "Hg10 mi
11:20 PM64 °FPartly cloudy.3 mph83%30.18 "HgN/A
10:50 PM64 °FPartly cloudy.2 mph83%30.18 "HgN/A
10:20 PM66 °FClear.3 mph78%30.18 "Hg10 mi
9:50 PM66 °FClear.2 mph78%30.18 "Hg10 mi
9:20 PM66 °FClear.5 mph78%30.18 "Hg10 mi
8:50 PM68 °FClear.5 mph73%30.18 "Hg10 mi
8:20 PM68 °FClear.5 mph73%30.18 "Hg10 mi
7:50 PM68 °FClear.5 mph73%30.18 "Hg10 mi
7:20 PM70 °FBroken clouds.3 mph69%30.18 "HgN/A
6:50 PM70 °FBroken clouds.2 mph69%30.18 "HgN/A
6:20 PM72 °FSunny.3 mph65%30.18 "Hg10 mi
Weather by CustomWeather, © 2014

See weather overviewHow to use our weather pages